Tracking 19637 objects as of 18-Apr-2019
HD Live streaming from Space Station
objects crossing your sky now

COSMOS 90

Track COSMOS 90 now!
10-day predictions
COSMOS 90 is classified as:


NORAD ID: 1588
Int'l Code: 1965-073E
Perigee: 1,412.2 km
Apogee: 1,661.6 km
Inclination: 56.1 °
Period: 116.6 minutes
Semi major axis: 7907 km
RCS: 0.564 m2 (medium)
Launch date: September 18, 1965
Source: Commonwealth of Independent States (former USSR) (CIS)
Launch site: TYURATAM MISSILE AND SPACE COMPLEX (TTMTR)
aabbcc
Your satellite tracking list
Your tracking list is empty




NASA's NSSDC Master Catalog

Two Line Element Set (TLE):
1  1588U 65073E   19107.92405280 -.00000074 +00000-0 +12791-3 0  9996
2  1588 056.0565 296.6213 0157657 248.1584 263.2629 12.34562288415992
Source of the keplerian elements: AFSPC